Regional Weather Roundup
Issued by NWS Bismarck, ND

Home | Current Version | Previous Version | Text Only | Print | Product List | Glossary On
Versions: 1 2 3 4 5 6 7 8 9 10 11 12 13 14 15 16 17 18 19 20 21 22 23 24 25 26 27 28 29 30 31 32 33 34 35 36 37 38 39 40 41 42 43 44 45 46 47 48 49 50
000
ASUS43 KBIS 220602
RWRBIS

NWR BROADCAST TEXT
NATIONAL WEATHER SERVICE BISMARCK ND
1200 AM CST WED FEB 22 2017

NOTE: "FAIR" INDICATES FEW OR NO CLOUDS BELOW 12,000 FEET WITH NO
SIGNIFICANT WEATHER AND/OR OBSTRUCTIONS TO VISIBILITY.


CITY           SKY/WX    TMP DP  RH WIND       PRES   REMARKS
WILLISTON      CLOUDY    34  32  92 N13       29.70R
MINOT          CLOUDY    34  32  92 NW7       29.67S FOG
MINOT AFB      LGT RAIN  33  32  98 N10       29.66F FOG
BISMARCK       FAIR      35  33  92 CALM      29.66F
DICKINSON      FAIR      35  32  88 E7        29.61F
GARRISON         N/A     34  32  92 N8        29.65F
HETTINGER ARPT FAIR      35  33  92 CALM      29.63F
JAMESTOWN      FAIR      34  33  96 CALM      29.64F
CARRINGTON     CLOUDY    36  34  93 CALM      29.67R
HAZEN            N/A    N/A N/A N/A CALM      29.67F
MANDAN         FAIR      36  36 100 N7        29.66F
STANLEY        CLOUDY    32  32 100 NE8       29.70R FOG
WATFORD CITY   CLOUDY    32  32 100 N10       29.67F
$$

CITY           SKY/WX    TMP DP  RH WIND       PRES   REMARKS
GRAND FORKS    CLOUDY    33  29  85 N3        29.66F FOG
GRAND FORKS AF CLOUDY    32  31  99 N3        29.66F FOG
DEVILS LAKE    LGT RAIN  34  33  96 W7        29.67
FARGO          FAIR      35  34  96 E3        29.64F
CAVALIER       FOG       32  32 100 N8        29.69R VSB 1/4
GRAFTON        FOG       30  30 100 NW6       29.70R VSB<1/4
GWINNER        FAIR      37  36  93 CALM      29.65F
ROLLA          HVY SNOW  32  32 100 N10       29.68R VSB 1/4
$$

CITY           SKY/WX    TMP DP  RH WIND       PRES   REMARKS
ABERDEEN       FAIR      41  35  79 NE9       29.64F
MOBRIDGE       FAIR      41  34  76 VRB5      29.61F
BUFFALO          N/A     41  35  79 SW7       29.62R
RAPID CITY     LGT RAIN  50  36  58 W20G25    29.73R
GLASGOW        LGT SNOW  33  32  96 W9        29.72R FOG
SIDNEY         LGT RAIN  35  33  92 N8        29.69R
WOLF POINT     LGT SNOW  35  33  92 NE3       29.73R FOG
GLENDIVE       MOCLDY    31  30  96 NW7       29.68S
MILES CITY     CLOUDY    39  35  86 N5        29.67R
BAKER          FAIR      36  33  89 S5        29.65S
$$

CITY           SKY/WX    TMP DP  RH WIND       PRES   REMARKS
BILLINGS       FAIR      42  28  57 W13       29.69S
GREAT FALLS    FLURRIES  34  33  96 N12       29.73R
$$




USA.gov is the U.S. government's official web portal to all federal, state and local government web resources and services.